Weather History for San Angelo, TX

Change the Weather History Date:

Monday, January 28, 2013

  Actual Average Record
Temperature  
Mean Temperature 72 °F 47 °F  
Max Temperature 79 °F 61 °F 85 °F (1970)
Min Temperature 64 °F 34 °F 11 °F (1948)
Degree Days  
Heating Degree Days 0 18  
Month to date heating degree days 481 523  
Since 1 July heating degree days 1206 1490  
Cooling Degree Days 7 0  
Month to date cooling degree days 12 0  
Year to date cooling degree days 12 0  
Growing Degree Days 22 (Base 50)    
Moisture  
Dew Point 59 °F    
Average Humidity 66    
Maximum Humidity 84    
Minimum Humidity 48    
Precipitation  
Precipitation 0.00 in 0.03 in 1.40 in (2010)
Month to date precipitation 1.40 0.83  
Year to date precipitation 1.40 0.83  
Snow  
Snow 0.00 in 0.00 in 0.90 in (1961)
Month to date snowfall 2.8 1.1  
Since 1 July snowfall 2.8 1.7  
Snow Depth 0.00 in    
Sea Level Pressure  
Sea Level Pressure 29.84 in    
Wind  
Wind Speed 16 mph (South)    
Max Wind Speed 30 mph    
Max Gust Speed 37 mph    
Visibility 10 miles    
Events      
T = Trace of Precipitation, MM = Missing Value Source: NWS Daily Summary

Daily Weather History Graph

Daily Weather History Graph

Search for Another Location

Airport:

Trip Planner

Search our weather history database for the weather conditions in past years. The results will help you decide how hot, cold, wet, or windy it might be!

Date:

Astronomy

Jan. 28, 2013 Rise Set
Actual Time 7:36 AM CST 6:13 PM CST
Civil Twilight 7:11 AM CST 6:39 PM CST
Nautical Twilight 6:41 AM CST 7:08 PM CST
Astronomical Twilight 6:13 AM CST 7:37 PM CST
Moon 7:59 PM CST (1/28) 8:12 AM CST (1/28)
Length of Visible Light 11h 28m
Length of Day
10h 37m
Full, 98% of the Moon is Illuminated
Jan 28
Full
Feb 3
Last Quarter
Feb 10
New
Feb 17
First Quarter
Feb 25
Full

Hourly Weather History & Observations

Time (CST) Temp. Dew Point Humidity Pressure Visibility Wind Dir Wind Speed Gust Speed Precip Events Conditions
12:51 AM 64.9 °F 57.9 °F 78% 29.91 in 10.0 mi South 12.7 mph - N/A   Clear
1:51 AM 64.9 °F 59.0 °F 81% 29.89 in 10.0 mi South 16.1 mph 25.3 mph N/A   Clear
2:51 AM 66.0 °F 61.0 °F 84% 29.87 in 10.0 mi South 13.8 mph 27.6 mph N/A   Clear
3:51 AM 66.0 °F 61.0 °F 84% 29.87 in 10.0 mi South 13.8 mph - N/A   Clear
4:51 AM 66.0 °F 60.1 °F 81% 29.86 in 10.0 mi South 12.7 mph - N/A   Clear
5:51 AM 66.0 °F 60.1 °F 81% 29.87 in 10.0 mi South 13.8 mph - N/A   Scattered Clouds
6:51 AM 66.0 °F 60.1 °F 81% 29.88 in 10.0 mi South 21.9 mph 29.9 mph N/A   Clear
7:51 AM 66.0 °F 60.1 °F 81% 29.90 in 10.0 mi South 17.3 mph 26.5 mph N/A   Clear
8:51 AM 66.9 °F 61.0 °F 81% 29.91 in 10.0 mi South 16.1 mph 25.3 mph N/A   Partly Cloudy
9:49 AM 69.8 °F 60.8 °F 73% 29.96 in 10.0 mi South 19.6 mph 28.8 mph N/A   Mostly Cloudy
9:51 AM 70.0 °F 61.0 °F 73% 29.92 in 10.0 mi South 20.7 mph 29.9 mph N/A   Mostly Cloudy
10:05 AM 71.6 °F 60.8 °F 69% 29.96 in 10.0 mi South 23.0 mph 29.9 mph N/A   Scattered Clouds
10:51 AM 73.0 °F 59.0 °F 61% 29.91 in 10.0 mi South 24.2 mph 33.4 mph N/A   Partly Cloudy
11:51 AM 75.9 °F 57.9 °F 54% 29.89 in 10.0 mi South 23.0 mph 31.1 mph N/A   Scattered Clouds
12:51 PM 77.0 °F 57.0 °F 50% 29.85 in 10.0 mi South 23.0 mph 28.8 mph N/A   Clear
1:51 PM 78.1 °F 57.0 °F 48% 29.82 in 10.0 mi SSW 20.7 mph 27.6 mph N/A   Partly Cloudy
2:51 PM 78.1 °F 57.0 °F 48% 29.79 in 10.0 mi South 17.3 mph - N/A   Clear
3:51 PM 79.0 °F 57.0 °F 47% 29.77 in 10.0 mi South 16.1 mph 26.5 mph N/A   Clear
4:51 PM 78.1 °F 57.0 °F 48% 29.76 in 10.0 mi South 13.8 mph 20.7 mph N/A   Clear
5:51 PM 75.0 °F 57.0 °F 53% 29.77 in 10.0 mi South 13.8 mph - N/A   Clear
6:51 PM 73.0 °F 57.0 °F 57% 29.79 in 10.0 mi SSW 10.4 mph - N/A   Clear
7:51 PM 70.0 °F 57.0 °F 63% 29.81 in 10.0 mi South 8.1 mph - N/A   Clear
8:51 PM 70.0 °F 57.9 °F 65% 29.78 in 10.0 mi SSE 11.5 mph - N/A   Clear
9:51 PM 70.0 °F 60.1 °F 71% 29.76 in 10.0 mi South 15.0 mph 24.2 mph N/A   Clear
10:51 PM 69.1 °F 60.1 °F 73% 29.75 in 10.0 mi South 13.8 mph - N/A   Clear
11:51 PM 68.0 °F 61.0 °F 78% 29.72 in 10.0 mi South 17.3 mph 23.0 mph N/A   Clear